Tracking 28793 objects as of 20-Apr-2024
HD Live streaming from Space Station
objects crossing your sky now

THOR ABLESTAR DEB

Track THOR ABLESTAR DEB now!
10-day predictions


NORAD ID: 48830
Int'l Code: 1961-015NJ
Perigee: 910.5 km
Apogee: 921.4 km
Inclination: 66.9 °
Period: 103.2 minutes
Semi major axis: 7286 km
RCS: Unknown
Launch date: June 29, 1961
Source: United States (US)
Launch site: AIR FORCE EASTERN TEST RANGE (AFETR)

Note: This is SATELLITE DEBRIS
Your satellite tracking list
Your tracking list is empty




NASA's NSSDC Master Catalog

Two Line Element Set (TLE):
1 48830U 61015NJ  24085.69478435  .00001656  00000-0  12705-2 0  9996
2 48830  66.9110 206.7426 0007487  82.7459 277.4474 13.95666948492407
Source of the keplerian elements: AFSPC